RH
82 82 83 83 84 86 83 83 86 90 90 91 92 89 87 80 71 69 69 67 64 58 52 47 39 37 39 42 40 42 49 55 69 66 51 37 32 33 31 31 28 24 21 18 15 14 14 14 14 14 14 15 15 16 17 17 17 19 20 24 30 34 36 36 34 32 32 33 31 23 16 13 13 14 16 18 17 18 19 18 16 16 17 16 15 14 13 16 23 27 30 38 44 42 34 27 21
84 82 82 83 86 90 86 86 89 90 91 92 89 83 84 79 69 68 67 65 63 58 51 42 33 33 33 33 34 38 38 37 51 47 32 31 31 31 29 27 25 22 17 15 15 14 14 13 14 14 14 15 17 18 19 20 20 22 23 27 34 38 39 38 37 35 35 35 32 24 18 17 15 16 18 21 23 23 24 22 19 20 22 23 22 21 20 22 27 32 38 43 44 42 33 25 22
82 80 81 83 84 90 88 86 88 92 91 86 82 78 79 76 71 68 66 66 63 57 46 39 34 33 38 40 40 37 26 26 35 29 24 27 26 28 26 23 23 19 14 14 13 13 14 13 14 14 15 17 19 21 22 23 24 25 24 28 35 38 38 38 38 37 37 37 35 29 23 21 19 18 21 27 30 30 29 26 23 23 24 25 25 26 26 27 30 37 46 46 43 41 32 26 24
76 76 80 80 81 87 89 87 88 95 95 84 83 83 78 75 75 68 65 67 61 52 41 38 36 35 45 44 37 31 21 24 28 22 24 28 23 21 21 20 20 15 13 14 14 13 13 13 14 15 15 16 19 21 21 21 23 25 24 26 33 36 36 37 37 38 38 38 36 33 27 24 23 22 24 30 35 34 32 32 30 27 25 24 24 26 28 30 34 42 49 47 43 42 35 28 25
72 71 73 75 78 84 88 88 88 95 96 87 83 86 80 70 70 68 65 63 55 47 38 39 38 37 45 39 33 29 22 22 22 21 25 27 19 15 18 19 17 14 13 15 14 13 13 13 14 15 16 16 17 19 19 19 21 23 24 25 29 32 34 34 35 36 37 37 37 34 30 26 26 26 27 32 35 34 33 35 35 33 30 27 25 26 29 33 39 44 48 46 43 45 42 31 23
73 71 71 75 78 84 86 83 89 94 90 84 75 74 75 67 65 64 59 55 48 43 39 41 41 41 44 34 28 24 24 25 21 24 27 23 15 13 17 17 16 13 14 16 14 13 13 14 15 16 16 17 17 18 18 18 21 23 24 25 27 30 32 32 33 34 34 35 34 33 31 28 28 29 31 33 33 34 34 36 38 38 38 35 31 29 29 32 37 43 45 45 46 46 46 40 30
82 79 72 75 79 86 87 82 89 89 84 84 74 66 67 65 64 59 53 49 44 43 41 40 38 38 38 28 23 22 24 25 21 27 29 19 13 13 14 15 15 13 15 16 14 14 14 14 15 16 17 17 18 18 19 20 22 26 28 29 28 29 30 32 32 31 31 31 31 33 32 29 29 30 32 33 34 36 37 38 39 37 39 39 37 35 33 31 32 39 40 41 45 46 46 45 39
81 76 71 75 78 86 91 89 84 77 79 79 70 67 62 61 61 56 50 45 44 46 42 40 41 39 37 28 22 21 20 22 24 28 27 17 11 11 11 12 13 13 15 14 14 14 14 15 16 16 18 18 19 21 23 23 25 29 32 33 30 28 29 32 32 30 30 30 31 34 35 31 30 32 33 34 35 38 37 37 38 36 38 40 40 38 35 31 29 32 32 34 41 45 45 43 39
68 67 73 78 78 84 90 87 79 74 76 70 64 64 60 59 57 53 47 44 44 46 46 44 44 39 35 28 22 21 19 22 25 27 26 15 10 10 10 11 12 13 14 14 14 14 15 16 16 17 18 19 21 22 23 24 27 30 32 34 32 29 31 33 33 33 33 32 33 36 38 36 33 34 34 34 36 36 34 35 37 37 36 35 35 34 33 31 27 27 26 29 36 41 45 47 39
61 64 74 80 81 85 84 79 82 78 71 68 67 61 58 58 53 51 46 45 45 43 51 49 44 40 32 27 23 22 19 21 23 24 24 14 8 9 9 10 12 13 14 15 14 14 16 16 16 17 19 20 21 22 23 25 27 30 31 33 33 31 32 35 35 36 36 35 36 37 38 37 34 35 34 33 35 34 33 33 32 31 29 29 31 32 34 34 32 33 32 32 35 37 43 52 45
63 66 72 80 83 86 82 76 80 73 65 69 68 60 59 56 51 55 49 44 45 42 51 53 45 39 31 27 25 23 18 21 24 22 21 13 8 8 9 11 12 13 14 14 14 15 16 17 17 17 19 20 21 22 23 25 27 29 31 32 33 33 33 36 38 36 36 36 36 37 37 36 34 35 33 31 31 30 30 28 26 28 28 30 33 34 35 37 39 42 43 42 43 43 44 50 48
68 70 72 77 81 90 89 78 74 69 69 70 62 58 57 54 51 57 50 42 45 44 52 56 46 39 32 29 26 24 19 21 25 22 20 13 8 8 9 11 13 14 14 14 15 16 17 18 18 18 20 21 21 22 23 25 28 28 28 29 30 30 29 32 35 32 33 33 31 32 33 32 30 29 28 27 25 25 27 27 28 31 32 34 37 36 36 40 44 46 49 51 50 48 46 46 47
68 71 77 76 78 90 89 80 75 72 75 71 63 60 56 57 55 54 49 45 49 47 50 51 45 42 34 29 27 24 20 20 24 22 18 12 8 8 9 12 14 14 14 15 16 17 18 19 19 20 20 21 22 22 23 24 25 25 25 27 27 26 25 25 25 24 25 25 24 25 26 25 25 23 22 23 23 26 30 31 32 33 33 35 35 34 35 37 43 46 49 53 51 48 47 47 46
68 74 81 73 74 86 86 84 80 76 76 70 65 63 58 58 57 54 50 51 55 53 55 49 42 42 34 29 30 25 20 19 23 22 18 12 8 9 10 13 14 15 15 15 16 18 19 20 20 20 21 24 24 23 25 24 23 22 24 28 27 26 25 22 19 18 18 18 20 20 21 21 20 21 23 25 27 30 30 30 31 30 29 29 30 31 31 34 41 44 46 49 50 49 48 48 48
69 74 76 69 75 84 88 90 82 83 80 68 65 62 60 56 54 56 52 54 53 50 58 52 41 41 35 32 31 26 22 19 22 22 17 12 8 9 11 13 15 15 15 15 17 18 20 20 21 23 24 28 27 25 25 24 22 21 24 27 27 27 25 24 21 19 17 17 18 18 20 21 23 25 26 27 26 26 24 24 25 23 24 26 28 29 31 34 37 38 37 38 41 42 41 43 45
68 69 70 69 77 78 85 91 81 87 83 68 67 62 63 59 57 62 56 55 50 45 53 53 48 43 37 34 32 29 25 20 22 21 16 12 9 9 10 13 15 15 16 16 17 18 20 21 22 24 27 30 29 27 27 25 22 21 24 26 26 27 26 25 24 22 21 20 21 23 24 25 25 24 21 18 16 17 17 18 19 18 20 25 28 29 32 35 35 32 29 29 30 30 29 31 33
66 67 70 70 80 80 84 90 80 87 81 68 71 65 66 63 61 64 55 50 48 46 50 51 52 46 41 37 31 31 27 22 22 20 15 11 9 9 11 13 15 16 17 17 17 18 20 21 22 24 28 30 32 31 28 25 23 21 23 25 26 27 26 26 26 25 25 25 26 26 25 24 20 15 14 14 15 16 17 19 19 18 19 24 28 31 33 33 32 28 26 27 25 22 18 18 19
65 67 73 74 83 86 88 91 82 86 79 70 74 66 65 63 58 59 51 47 43 43 45 42 43 43 42 38 30 30 28 23 22 21 15 10 9 9 10 13 14 16 17 17 18 18 19 21 21 24 29 31 35 34 28 24 24 22 22 24 26 26 26 26 26 26 26 26 28 25 21 21 20 19 20 23 26 25 23 24 22 21 22 24 26 28 30 28 28 24 23 24 26 27 20 19 16
64 65 73 78 87 89 87 85 78 86 83 72 74 68 67 62 56 55 50 49 46 41 39 35 36 36 37 37 30 27 27 24 23 23 18 11 8 9 11 13 14 14 15 16 16 17 17 19 19 23 29 32 35 31 25 25 24 22 23 24 24 25 25 25 24 23 25 24 27 25 18 21 26 27 29 30 32 29 27 26 23 23 24 24 24 24 24 21 20 20 19 22 29 32 28 31 26
64 65 69 78 89 85 80 76 72 83 81 71 73 71 66 58 57 56 48 52 54 47 41 34 34 36 36 36 31 25 24 24 23 24 20 12 8 9 10 13 14 13 14 15 15 15 16 17 18 21 25 30 33 28 23 25 24 23 24 22 22 21 20 22 20 17 20 19 20 22 18 20 23 23 27 29 30 28 28 28 26 25 25 29 30 30 30 26 22 20 21 29 33 30 29 37 33
64 67 67 78 86 77 72 71 69 75 73 70 76 73 64 60 59 53 46 56 61 52 46 38 33 35 34 34 31 25 23 23 23 23 18 11 10 10 9 12 13 12 14 14 13 13 14 15 16 18 21 27 31 26 23 24 24 22 20 18 17 16 14 15 13 9 11 12 15 21 19 18 18 20 26 30 35 33 31 33 32 30 29 38 42 40 44 43 39 30 29 36 35 27 26 31 31
66 68 66 74 77 68 66 66 67 71 69 72 80 73 63 64 60 51 49 58 65 60 57 47 32 30 30 31 32 28 25 23 22 24 19 11 11 10 8 12 12 12 14 13 12 12 13 14 15 17 18 22 24 23 22 21 21 19 15 14 12 11 10 9 8 7 8 11 14 16 16 14 14 19 22 29 35 34 36 31 30 36 39 47 47 45 53 53 49 43 40 42 35 32 32 29 29
65 66 63 66 66 61 62 64 69 71 67 70 78 73 69 71 63 56 56 61 67 64 66 59 36 25 23 23 30 30 27 23 21 23 21 12 11 11 8 11 12 12 12 11 11 10 12 13 14 16 18 18 18 19 19 18 17 16 12 10 9 7 7 7 7 9 11 14 15 14 15 13 12 14 13 25 37 42 48 42 43 55 53 52 47 45 55 54 50 48 49 51 40 39 44 37 29
62 64 63 62 60 57 57 62 69 71 67 66 70 71 75 77 64 59 60 63 66 60 64 63 40 27 22 17 24 30 29 25 21 21 21 14 10 11 9 10 12 11 11 11 10 10 12 13 13 15 16 16 16 16 15 14 13 11 10 8 8 7 8 9 10 13 16 16 17 17 15 12 12 12 11 22 33 37 42 50 66 73 63 58 50 47 54 56 56 52 49 53 46 45 54 49 33
66 64 64 62 59 56 54 58 64 67 65 61 62 66 75 76 63 63 64 61 61 58 65 62 40 28 24 17 17 24 28 28 23 20 21 16 10 11 9 9 11 11 10 10 10 10 11 12 12 12 13 14 13 13 11 12 11 9 9 9 9 10 10 12 14 16 17 17 19 18 15 15 13 10 18 23 24 22 22 47 70 65 61 60 51 48 49 52 57 56 62 62 50 47 53 53 40
72 67 64 62 60 56 54 55 59 61 59 58 59 61 71 74 63 63 65 60 59 59 63 59 39 26 22 18 14 18 24 26 27 22 19 16 12 11 9 8 10 10 9 10 10 10 12 11 11 10 11 11 10 10 10 9 9 9 9 10 12 13 14 14 15 15 16 18 20 15 14 25 20 9 19 22 25 26 23 47 61 45 46 53 47 46 44 44 43 48 74 75 54 47 48 55 51
72 69 64 63 62 57 54 54 57 59 55 55 56 59 69 73 67 66 64 59 59 58 58 55 40 26 22 18 13 16 20 23 27 22 17 17 13 10 9 8 10 10 8 9 10 10 12 11 9 9 8 8 8 7 8 8 8 9 10 12 14 16 17 16 15 14 15 16 17 12 10 22 21 11 16 19 33 46 43 55 55 33 36 45 42 43 42 39 34 35 55 57 44 41 40 53 53
69 72 66 66 64 58 54 51 56 60 54 52 55 61 68 72 74 73 63 58 58 56 57 56 43 32 29 21 13 14 17 23 28 24 18 17 14 11 10 8 9 10 9 8 9 11 11 11 9 7 7 6 7 7 7 8 8 9 10 13 15 17 17 16 14 12 13 14 12 11 10 16 18 14 15 19 34 48 56 65 54 35 32 35 34 36 34 30 33 37 37 35 36 38 35 42 43
60 66 64 66 66 60 55 48 53 57 54 51 53 59 67 74 78 75 64 59 61 57 57 56 43 39 38 26 16 14 15 20 26 26 20 16 15 12 9 8 9 10 8 7 8 10 11 11 8 6 6 6 7 8 8 8 9 10 11 12 14 15 15 13 12 10 11 12 10 11 12 15 15 13 14 19 31 38 49 53 41 35 29 27 34 33 28 26 30 35 33 32 35 38 34 31 31
44 53 53 59 60 58 57 49 48 54 53 51 51 57 70 76 73 72 67 61 63 60 58 53 43 46 44 29 19 14 12 16 21 25 24 20 16 13 10 6 9 9 7 7 7 10 11 10 9 6 6 6 8 9 9 10 10 10 11 11 12 12 12 10 10 10 11 10 11 13 13 14 13 15 14 17 28 31 36 36 28 33 27 23 35 34 28 29 28 30 36 36 29 31 29 25 27
31 39 37 42 46 49 55 50 46 50 51 49 49 57 72 75 70 73 70 63 64 62 60 57 49 50 44 30 23 16 11 12 17 21 22 24 19 14 11 6 8 10 7 6 6 8 11 10 8 7 6 6 8 9 10 10 10 11 10 10 10 10 9 8 9 9 10 11 12 13 14 15 13 15 15 20 33 32 30 34 32 34 27 20 30 30 24 27 29 33 38 33 23 24 24 22 25
30 30 24 26 30 38 48 44 41 48 50 47 45 53 64 67 70 76 70 66 67 62 61 61 55 52 44 34 29 23 17 12 14 18 18 23 21 16 13 6 8 11 7 6 6 7 9 10 7 7 6 6 7 8 9 9 10 10 9 8 8 8 8 8 9 9 11 12 13 14 14 15 14 14 13 20 40 46 39 38 36 35 29 26 31 27 20 22 28 32 30 24 21 23 22 22 23
38 31 23 24 23 29 38 35 36 46 50 46 41 47 59 66 72 74 71 72 72 67 64 61 62 59 46 38 33 28 24 14 12 16 17 21 20 18 15 8 8 12 8 5 5 6 7 9 8 7 6 5 6 6 6 7 8 9 8 8 7 7 8 8 9 10 12 13 13 15 14 15 15 14 13 15 33 51 48 39 37 37 32 30 28 19 15 17 23 28 23 20 21 21 21 20 19
38 34 30 29 24 27 33 32 38 46 46 44 42 43 52 63 71 73 75 75 73 72 65 58 66 67 51 42 36 31 29 20 14 14 17 21 20 18 17 11 9 10 8 5 4 4 6 8 8 7 7 6 6 5 6 6 7 8 8 7 7 7 8 9 10 11 12 13 14 15 15 15 14 13 13 13 24 40 44 37 33 36 37 33 27 20 17 14 19 26 19 13 16 17 18 16 15
37 39 38 37 31 29 32 32 42 53 50 45 47 45 44 53 66 71 72 72 71 70 66 64 69 67 56 48 41 35 33 28 21 14 13 19 20 17 17 13 9 8 7 5 5 4 5 7 7 8 7 6 7 6 6 6 7 8 7 7 7 7 8 9 10 11 12 13 14 14 14 15 13 14 13 11 18 33 46 44 31 33 39 33 27 23 19 15 16 21 16 10 11 11 12 12 11
39 45 44 45 40 34 37 41 46 58 58 46 45 47 43 48 59 62 64 70 72 69 71 71 65 60 57 51 45 43 37 32 28 17 9 16 20 15 16 16 10 7 7 5 4 4 4 5 5 7 7 7 7 7 7 7 7 8 7 7 6 7 8 9 10 11 12 12 12 13 13 13 13 13 13 10 14 24 39 43 28 25 38 41 38 30 21 17 15 13 13 11 8 7 8 8 8
32 41 43 46 46 42 47 50 44 50 59 50 46 49 45 47 51 52 63 71 71 75 79 69 58 61 62 52 49 50 42 36 36 23 9 11 18 15 13 17 13 7 6 5 4 4 3 5 4 5 6 6 7 7 7 7 7 7 6 6 6 7 8 9 11 11 12 12 12 12 11 12 12 11 12 10 11 16 21 26 21 19 31 41 45 40 25 15 15 16 15 12 9 7 6 6 6
17 28 35 41 46 47 51 52 42 40 51 56 56 51 51 59 52 46 64 76 70 75 80 70 65 67 62 56 52 51 45 41 41 30 17 11 15 17 13 15 16 9 6 5 4 4 3 4 4 4 5 6 7 7 7 7 7 6 6 5 5 6 7 8 11 11 12 12 11 13 12 11 11 10 10 9 11 18 17 16 19 19 23 26 27 33 29 16 14 22 21 12 10 9 7 7 6
8 14 24 32 38 45 53 60 58 48 46 57 64 56 54 60 48 41 63 78 69 70 77 73 71 67 62 59 54 52 46 45 49 37 22 13 12 17 13 13 17 11 6 5 3 4 3 4 4 4 5 5 6 6 7 7 6 6 5 5 5 5 7 8 10 11 11 12 11 12 12 11 11 10 9 8 8 13 13 12 15 16 21 28 24 26 33 23 11 19 23 16 14 12 7 8 7
4 6 13 21 31 43 53 60 66 61 47 47 57 59 60 61 48 39 55 75 74 73 79 71 63 63 62 58 55 57 47 45 59 49 27 14 9 14 13 11 17 13 7 5 3 4 3 3 4 4 4 5 5 6 6 6 5 6 5 5 6 5 6 7 9 11 10 11 11 11 11 10 10 9 8 8 7 8 9 9 13 12 14 24 20 16 27 25 14 20 22 17 19 15 9 9 8
3 3 6 11 22 35 50 64 69 66 52 41 47 54 57 64 59 41 42 67 78 74 77 74 68 66 62 58 56 58 50 44 53 49 36 22 7 10 12 9 14 13 8 5 4 4 3 3 4 4 5 4 5 5 5 6 5 5 6 5 6 6 6 7 8 10 10 10 10 10 10 9 9 9 7 7 7 7 8 7 10 11 10 13 10 20 35 26 20 28 21 16 20 14 9 9 8
5 4 3 5 13 21 39 62 72 79 71 49 46 52 49 53 59 51 40 50 66 73 76 76 77 73 63 61 62 60 55 48 46 44 40 28 9 6 9 8 13 13 8 5 4 4 4 4 4 4 5 4 5 5 5 6 6 5 6 6 6 6 6 7 7 9 9 9 9 8 8 8 7 7 6 7 6 6 7 7 8 8 9 10 8 25 38 21 16 24 17 17 20 11 9 10 8
6 6 4 2 7 12 23 44 61 79 76 50 45 48 44 45 48 49 46 43 56 74 76 68 71 74 65 63 69 66 58 54 54 52 47 36 15 5 5 7 12 14 9 5 4 4 4 4 4 3 5 5 4 5 6 6 6 6 6 6 6 6 6 6 7 8 8 8 9 8 7 7 7 7 6 6 6 6 6 6 8 7 7 9 7 14 21 13 10 12 9 14 15 9 8 8 8
9 7 7 3 3 7 12 25 43 56 52 50 63 56 38 42 44 42 47 49 54 61 63 62 65 68 64 65 70 65 59 57 55 50 45 39 22 6 3 6 10 13 9 5 3 4 4 4 4 4 4 5 4 5 6 7 7 6 6 6 6 5 5 5 6 7 8 8 8 8 7 6 6 6 6 6 5 5 6 6 6 7 7 8 8 8 10 10 9 7 7 10 8 7 8 6 7
12 9 8 5 3 4 6 12 25 36 33 38 63 63 44 46 48 43 46 48 49 50 51 53 58 61 61 67 72 65 60 58 55 53 46 39 31 14 4 3 7 10 9 6 4 3 4 4 4 4 4 4 4 5 6 7 7 6 5 6 6 5 5 4 6 7 7 8 8 8 7 6 6 6 6 6 6 4 5 6 5 6 7 6 7 8 8 9 9 8 9 9 7 7 6 6 7
15 14 10 7 4 3 4 6 10 23 29 22 33 55 68 71 59 45 43 42 40 42 44 39 39 52 59 64 70 66 60 57 59 62 51 41 38 27 12 4 4 9 8 5 4 3 4 4 3 4 4 4 4 5 7 6 6 6 5 6 6 5 4 4 5 6 7 8 8 8 7 6 5 6 5 4 5 5 4 5 5 5 6 6 6 7 7 7 8 9 9 9 9 8 6 6 6
19 20 13 7 7 3 2 5 5 11 19 15 15 40 78 87 57 29 32 46 45 35 36 34 28 45 63 61 60 61 61 61 62 58 48 44 43 34 22 9 3 7 8 6 5 4 4 4 4 4 3 4 4 4 6 6 5 5 5 5 5 5 5 5 5 6 7 7 8 8 7 6 5 4 5 4 4 4 4 4 4 4 5 5 5 6 7 6 6 7 7 8 9 9 8 7 7
21 22 18 10 9 8 3 3 5 5 7 9 9 26 64 77 48 25 28 43 49 40 36 35 28 41 62 61 57 61 62 61 60 53 43 43 44 38 30 17 5 5 8 7 5 4 5 4 3 4 3 3 4 5 6 6 5 5 5 5 5 5 6 5 5 6 7 7 6 7 6 5 5 4 4 4 4 5 5 5 4 4 4 4 5 5 5 6 6 6 6 6 7 8 8 8 8
25 24 23 17 11 10 8 3 4 4 3 6 6 12 32 39 29 33 45 48 55 57 47 42 39 38 51 63 63 64 64 60 58 54 45 44 46 42 34 24 12 6 6 9 7 5 6 5 4 4 3 4 3 5 7 5 5 5 5 5 5 5 6 6 6 5 6 6 6 6 6 5 5 5 5 5 6 6 7 7 6 6 5 4 5 5 4 5 5 5 6 6 7 7 7 8 9
27 29 25 22 16 13 11 6 3 4 2 3 5 7 12 13 9 21 51 66 70 67 41 28 41 42 46 66 68 60 63 61 58 59 51 46 49 45 37 30 22 13 7 7 8 7 6 6 6 4 3 4 4 5 7 6 5 5 5 5 5 5 6 6 6 6 6 6 6 6 6 6 6 6 6 7 8 9 8 8 8 7 7 6 6 5 5 5 5 5 5 5 6 5 5 6 6
24 33 33 29 22 18 17 12 5 2 3 4 3 4 4 7 6 5 25 46 62 79 61 28 34 44 44 59 64 59 65 66 61 61 53 47 51 49 41 34 29 24 15 8 7 8 7 6 7 6 4 4 4 5 6 6 5 5 5 5 5 6 6 7 6 6 6 5 6 6 6 6 6 6 7 9 10 11 11 10 10 10 9 9 9 9 9 8 8 9 9 10 11 10 9 8 7
21 29 42 41 25 19 30 34 22 7 5 7 6 6 2 3 7 4 7 14 27 59 66 39 33 42 43 56 65 62 67 72 66 58 51 49 52 51 45 38 34 31 26 18 12 8 7 7 6 7 6 4 5 6 6 7 5 5 5 5 6 6 6 6 6 6 6 6 6 5 6 6 6 6 8 10 12 12 12 12 12 12 12 11 11 11 11 11 11 11 11 13 14 15 15 14 13
30 28 34 43 35 22 29 40 35 19 16 22 18 12 5 0 3 5 5 5 8 19 25 22 28 37 42 55 67 64 64 71 66 56 53 53 54 52 47 43 39 36 35 30 23 15 9 8 7 6 6 5 5 6 6 7 6 5 5 5 5 6 6 6 6 6 6 7 6 5 5 7 7 7 9 11 12 13 12 12 12 11 11 11 11 11 10 11 11 11 11 12 13 13 14 14 14
53 57 38 40 48 36 28 40 41 24 20 30 32 27 20 9 2 3 4 3 6 10 10 14 22 28 31 41 55 63 66 69 64 57 56 54 55 55 50 46 44 41 41 37 32 25 16 10 8 6 6 6 6 6 7 7 6 5 5 4 5 5 6 6 6 6 6 6 7 6 5 7 8 8 10 12 13 13 13 12 11 11 11 10 10 10 10 10 10 10 10 11 12 13 13 14 14
48 81 71 55 60 49 32 38 40 27 25 31 31 32 37 32 13 2 3 3 3 5 8 13 19 25 27 33 46 58 62 64 60 57 58 54 54 57 53 50 49 46 45 43 38 33 24 16 11 7 6 6 5 6 7 7 6 6 5 5 5 5 6 6 5 5 6 6 7 6 5 7 8 9 11 12 13 13 13 12 11 10 10 9 9 8 9 9 9 9 9 9 10 12 13 13 14
35 70 95 89 82 68 44 33 27 27 44 51 37 25 31 40 29 9 3 3 2 5 6 9 16 23 27 30 40 49 53 55 55 57 60 54 52 60 59 54 54 52 50 48 44 40 34 26 17 11 8 6 5 6 6 7 6 6 6 5 5 5 5 5 5 5 5 6 7 6 5 6 9 10 11 13 14 13 13 12 11 10 9 8 8 8 8 8 8 8 7 8 8 9 11 11 11
50 53 82 97 95 88 71 54 33 20 36 60 60 44 33 33 28 13 6 4 1 2 4 9 14 20 27 28 33 43 46 46 51 53 53 51 53 61 63 58 56 55 51 49 48 45 41 36 27 18 11 8 6 5 5 7 7 6 6 6 5 5 4 5 5 5 6 6 6 6 6 6 9 11 12 13 14 13 13 11 10 10 9 8 7 7 8 7 7 7 7 7 7 8 9 10 10
78 61 68 86 91 91 87 80 60 29 21 44 62 62 55 54 50 30 11 3 3 3 2 7 13 19 27 24 28 42 41 37 47 49 46 54 60 59 62 62 58 56 55 54 53 50 46 43 38 29 18 11 9 6 5 6 7 7 6 6 6 4 4 4 5 5 6 6 6 6 6 6 8 11 12 13 14 13 12 11 10 10 9 8 8 7 7 7 7 7 8 8 8 10 11 10 11
Wind_Speed
7 7 6 6 9 11 10 8 8 8 8 7 7 11 15 15 15 15 12 11 10 10 10 9 9 8 8 8 7 6 5 6 7 7 4 3 3 3 6 7 6 6 6 7 8 9 10 11 12 11 12 12 13 14 14 14 13 13 13 14 15 15 16 17 17 18 17 17 16 16 16 16 16 15 14 14 14 14 13 12 11 10 9 8 7 7 7 7 6 7 7 7 8 8 9 10 10
8 9 9 8 9 11 10 9 9 8 7 7 9 13 14 13 15 14 12 11 10 10 9 9 9 8 8 8 7 7 6 5 5 4 3 4 4 4 7 7 7 6 6 7 9 10 10 11 12 12 12 13 13 14 14 14 13 13 13 14 15 15 16 17 17 18 17 17 16 16 15 15 15 14 13 13 13 12 12 11 11 10 9 8 7 8 8 8 8 8 7 7 8 8 9 10 10
8 10 10 10 10 11 11 11 10 8 6 7 11 14 13 12 14 12 11 10 10 9 9 9 9 8 7 6 7 7 6 5 4 2 2 4 5 6 7 8 7 6 6 7 8 10 11 12 12 12 13 13 14 15 15 14 13 13 13 14 15 15 16 16 17 17 16 16 16 15 15 15 14 13 13 13 12 11 10 10 10 9 7 6 6 7 9 9 9 9 8 8 8 8 9 9 10
8 9 9 9 10 10 11 10 10 6 6 9 12 15 13 12 13 11 11 10 10 9 8 8 8 7 7 6 6 6 6 6 5 3 2 4 5 7 8 8 8 6 7 8 9 10 11 12 12 13 13 14 15 15 15 14 13 13 13 14 15 15 15 16 16 16 15 15 15 15 14 14 14 12 12 12 12 10 9 9 9 8 6 5 5 6 8 8 8 8 8 8 9 8 8 8 9
7 8 9 9 10 9 9 10 9 5 6 11 11 14 14 11 11 11 10 10 10 9 8 8 7 7 6 6 6 5 6 6 5 3 3 4 4 6 9 9 8 7 8 8 9 11 12 13 13 13 13 14 15 15 15 14 13 13 14 15 15 15 15 15 15 15 14 14 14 14 14 13 13 12 10 10 10 9 8 7 7 7 5 4 5 6 7 7 8 8 8 8 8 9 8 8 9
7 7 7 8 9 9 9 11 9 5 7 11 11 12 13 11 10 10 10 10 9 8 8 7 7 7 6 6 5 5 6 6 5 4 3 3 3 6 9 10 9 8 8 9 10 11 12 13 14 14 13 14 14 15 15 14 13 13 14 15 15 15 15 15 14 14 13 13 13 13 13 12 11 11 9 8 8 8 7 5 5 5 5 4 4 5 5 6 6 7 7 7 7 8 9 9 9
6 6 6 7 10 9 10 10 7 7 8 10 12 11 11 11 10 10 9 9 8 8 8 7 7 6 6 6 5 5 6 6 6 5 3 3 4 6 9 10 10 9 9 10 10 12 13 14 15 14 14 14 14 15 15 14 13 12 13 14 14 14 14 14 14 13 12 12 12 12 13 12 11 10 8 7 6 7 6 5 4 4 5 4 4 4 4 4 5 5 6 6 7 8 8 9 8
7 7 7 8 9 9 8 7 6 9 10 10 12 11 10 10 10 9 8 8 7 7 7 7 6 6 6 6 6 5 6 7 6 5 4 3 5 6 7 10 11 11 10 11 11 12 14 15 15 15 14 14 14 14 14 13 12 11 12 12 13 13 13 13 13 12 11 11 10 10 11 12 11 9 8 6 5 5 5 4 3 3 4 4 4 3 3 3 4 4 5 5 6 6 7 7 7
9 8 8 8 9 8 7 7 7 10 11 11 12 11 10 10 9 8 7 7 6 5 8 7 5 6 6 6 6 5 6 7 7 6 4 3 5 6 6 9 11 11 11 11 12 13 14 15 15 15 14 14 14 14 14 13 11 11 11 12 11 12 12 12 12 11 10 10 10 9 10 11 11 9 7 6 5 4 4 4 3 3 3 3 3 3 3 3 4 4 4 4 5 5 5 6 6
10 9 9 9 9 7 6 7 8 8 10 10 11 10 9 9 8 8 7 6 5 4 7 7 5 7 7 7 6 5 6 7 7 7 6 3 4 6 6 8 10 11 11 11 12 13 13 14 15 15 14 13 13 13 13 12 11 11 11 12 11 11 11 11 11 10 9 8 8 8 8 9 9 8 7 5 4 4 4 3 3 3 3 3 4 3 4 5 5 5 5 5 4 4 5 5 5
10 10 11 10 9 7 6 8 7 8 10 9 9 9 8 8 7 8 7 6 5 4 5 6 6 7 7 6 5 5 6 8 7 8 7 4 4 6 6 8 9 10 11 11 12 12 13 14 14 15 14 13 13 13 13 12 11 11 11 12 11 10 10 10 11 9 9 7 7 7 7 8 8 7 6 5 4 4 3 4 4 3 3 4 5 5 5 6 6 6 6 6 6 6 5 5 5
12 11 11 11 9 5 5 8 8 8 9 9 8 8 8 8 7 7 6 5 5 4 4 6 7 7 7 6 5 4 6 8 8 8 8 5 4 5 6 8 9 9 10 11 12 12 12 13 14 14 14 14 13 12 12 12 11 11 11 11 11 10 9 9 10 9 8 7 7 7 7 7 7 6 6 5 4 4 4 5 5 4 5 6 6 6 6 7 7 7 6 7 7 7 6 5 5
14 12 10 12 10 4 4 7 9 9 8 9 8 7 8 7 7 6 5 4 5 4 4 5 5 6 6 5 5 3 5 8 9 9 9 6 5 5 6 8 9 9 9 10 11 12 12 12 13 13 14 14 13 12 12 12 12 11 11 11 11 11 9 8 9 9 9 8 7 7 7 6 6 6 6 5 5 5 6 7 6 6 7 8 8 8 8 8 8 8 7 8 8 8 8 7 5
16 12 8 11 12 7 4 6 10 9 8 7 7 8 7 7 7 6 5 3 3 4 6 6 4 6 6 5 4 3 3 6 8 10 9 7 5 5 6 8 9 9 9 10 10 11 12 11 12 12 13 13 13 12 12 12 12 11 11 11 11 11 10 9 9 10 10 9 8 8 7 6 6 7 7 7 7 7 8 8 8 9 9 9 9 9 9 9 10 10 9 9 9 8 8 7 7
16 12 10 10 9 7 4 6 11 9 7 7 7 8 7 7 7 6 5 4 3 3 5 6 5 6 6 5 4 2 2 5 7 10 10 8 6 6 7 8 9 10 9 10 10 10 11 11 11 12 12 13 13 12 12 11 11 11 11 11 11 11 10 10 10 10 10 9 9 8 7 7 7 7 8 8 9 9 9 9 10 10 10 10 9 9 9 10 11 11 10 10 10 9 9 8 7
15 13 12 10 8 9 7 6 9 7 6 9 8 8 7 6 6 5 5 4 4 2 3 5 6 6 6 6 5 3 1 3 6 9 10 9 8 7 8 9 9 10 10 9 9 10 11 11 11 11 12 12 12 12 11 11 11 11 11 11 11 11 11 10 10 10 9 9 9 8 8 7 8 8 8 9 10 10 10 10 10 10 10 10 9 9 9 10 11 11 10 10 10 10 10 9 8
15 14 12 12 10 11 9 5 8 6 5 9 8 7 6 5 5 4 4 3 3 3 3 4 4 6 6 6 6 5 1 2 5 8 10 10 9 8 9 10 9 10 10 10 9 9 10 10 10 11 11 11 11 11 11 11 10 10 10 10 11 11 11 10 10 9 9 8 8 8 8 8 9 8 8 9 10 10 10 10 10 10 10 10 9 9 9 10 10 10 10 10 10 10 9 9 8
17 16 12 12 11 10 8 4 8 8 7 10 8 7 6 4 4 2 2 2 2 3 3 3 3 4 5 5 6 7 4 2 4 7 9 10 10 9 10 10 10 11 11 10 10 9 10 10 10 10 11 11 10 10 10 10 10 10 10 10 10 11 10 9 9 8 8 8 8 8 9 9 9 9 9 9 9 10 10 10 9 9 9 9 9 9 9 9 9 9 9 10 9 8 8 8 7
19 18 14 11 10 10 9 6 8 6 6 10 8 7 7 4 3 3 3 2 2 2 2 3 3 2 3 4 5 6 7 3 4 6 8 9 10 10 10 11 10 11 12 12 11 9 9 10 10 10 11 10 10 10 10 10 9 9 10 10 10 10 9 9 8 8 9 9 9 8 8 9 10 9 9 9 9 9 9 9 8 8 8 8 8 8 8 8 8 8 8 9 8 7 7 8 8
20 19 17 12 9 10 10 9 10 7 4 9 9 8 7 5 3 4 4 4 4 4 3 3 4 3 3 4 5 6 8 6 3 5 8 8 9 9 10 11 10 11 12 12 12 10 10 10 11 11 11 11 10 10 10 10 9 9 10 10 10 10 9 9 9 9 9 10 10 9 8 8 9 9 9 9 8 8 8 8 7 7 8 7 8 7 7 7 6 6 6 7 8 7 6 7 9
21 20 17 12 9 11 11 10 10 9 7 7 8 7 7 5 3 6 5 4 5 6 6 5 5 5 3 3 4 5 7 8 4 6 8 9 9 8 8 9 10 11 12 12 12 12 11 11 12 12 12 12 11 10 10 10 10 10 10 11 11 10 10 9 9 9 8 8 8 8 8 8 8 7 8 8 7 7 8 8 8 7 8 7 7 6 6 7 6 6 5 7 9 8 7 7 8
22 20 19 14 11 12 11 10 11 11 9 7 8 7 7 5 5 6 4 4 6 6 7 6 5 6 6 5 4 4 6 9 7 7 9 10 10 9 9 9 9 10 11 12 12 12 13 12 12 12 12 12 12 11 11 11 11 11 11 11 11 11 10 9 9 9 8 8 8 8 8 8 7 6 7 8 7 7 9 9 8 8 9 8 7 6 6 7 8 7 6 7 9 8 8 8 8
23 21 21 19 14 11 12 12 11 11 10 9 9 8 7 6 6 6 4 6 7 6 7 7 6 6 6 7 6 4 5 8 9 9 11 12 12 11 11 11 11 10 11 12 13 13 13 14 14 13 13 13 13 12 12 12 13 12 12 12 11 11 10 9 9 9 8 8 8 7 7 7 7 6 6 8 8 8 9 8 8 9 8 7 7 7 6 6 7 7 6 6 8 8 8 8 8
25 22 21 20 16 13 13 13 13 12 12 11 10 10 8 8 8 6 5 7 7 6 7 7 6 5 5 7 8 6 5 7 9 10 12 13 13 13 13 13 12 11 11 12 13 14 14 15 15 15 14 14 13 13 12 13 13 13 13 12 11 10 10 9 9 8 8 7 7 6 6 6 6 7 7 8 10 9 8 8 8 7 6 7 7 6 5 5 6 6 6 6 9 9 7 8 8
25 24 21 20 17 16 15 15 15 14 13 12 12 11 10 10 10 7 5 8 8 7 7 7 6 5 5 6 8 9 7 6 8 9 11 12 13 12 12 13 14 13 12 13 13 14 14 15 15 16 15 14 14 13 13 14 14 14 13 12 11 10 10 9 8 8 7 6 6 5 5 6 6 8 9 9 10 9 8 9 10 7 4 7 8 8 7 6 7 6 6 7 9 10 7 7 8
28 26 24 21 19 18 17 17 16 15 14 13 13 13 13 12 10 8 7 9 9 8 7 7 7 6 6 7 8 10 10 9 10 10 11 13 13 13 13 14 15 14 13 13 13 14 14 15 15 16 16 15 15 14 14 14 14 14 13 12 11 10 9 9 8 7 6 6 5 5 5 6 7 8 9 9 10 10 9 9 10 8 7 8 9 9 9 8 9 7 6 8 10 10 8 8 9
31 27 25 22 20 19 18 18 17 17 16 14 14 15 15 14 11 9 8 9 9 8 8 8 8 7 6 7 8 9 10 11 12 12 12 14 14 14 14 15 15 15 14 14 14 14 15 15 15 16 16 15 15 15 14 14 14 13 13 12 11 10 9 8 7 6 5 5 5 5 6 7 8 9 10 10 9 8 8 8 9 9 9 9 9 9 9 10 10 9 9 10 11 10 9 9 10
30 27 25 23 22 20 19 19 18 18 18 17 16 17 17 15 13 11 10 9 9 9 10 9 8 7 7 7 8 10 11 11 12 12 13 15 16 16 16 16 16 16 16 16 15 15 15 15 16 16 17 16 15 15 14 13 13 12 12 11 10 9 8 7 6 6 5 5 5 6 6 8 9 9 10 11 9 8 8 7 8 9 9 10 11 11 11 11 10 10 12 12 12 12 11 11 12
31 30 28 26 25 23 20 20 20 20 20 19 19 20 19 16 15 13 12 11 10 11 10 10 9 7 8 8 8 10 12 13 14 14 14 15 16 17 17 18 18 18 17 17 17 16 16 15 16 16 17 16 15 14 13 12 12 11 11 11 10 9 8 7 6 6 6 6 6 7 7 8 9 9 10 10 9 9 8 7 8 10 11 11 12 11 11 11 12 13 14 14 14 14 13 12 12
32 31 30 28 27 24 22 22 22 21 21 21 21 21 19 17 16 14 13 11 11 12 11 10 10 9 8 8 9 10 12 13 14 15 14 14 15 16 17 18 19 19 19 18 18 17 17 16 16 16 16 16 15 14 13 12 11 11 10 10 9 8 7 7 7 7 7 7 7 8 8 8 9 9 10 10 10 9 8 8 10 11 12 12 11 12 11 13 14 16 16 15 16 15 14 13 13
31 32 31 29 28 26 25 24 24 23 23 23 23 23 20 18 18 16 14 14 14 14 13 12 11 10 9 8 9 9 11 12 12 14 15 14 14 14 15 17 19 20 20 19 19 19 18 17 16 16 16 16 16 14 13 12 11 10 10 9 9 8 7 7 7 8 8 8 9 8 8 8 9 9 9 10 11 10 9 9 10 12 12 12 11 12 13 15 16 16 16 16 17 16 15 15 14
29 32 31 28 28 26 27 27 26 25 26 26 25 24 22 20 20 18 16 15 16 16 15 13 12 10 9 9 9 9 9 10 12 14 15 15 14 14 15 16 18 20 21 21 20 20 20 18 17 17 16 16 15 14 13 12 11 10 10 9 8 8 7 8 8 8 9 9 9 9 9 8 9 9 9 10 10 9 9 9 9 11 11 11 11 12 13 16 16 16 16 17 17 16 15 15 15
30 32 28 26 26 26 29 29 26 27 27 27 27 25 24 21 20 20 19 17 17 18 16 15 14 11 10 10 9 9 9 10 12 14 15 16 16 16 16 17 18 20 21 22 21 21 21 20 18 17 16 16 15 14 13 12 11 11 10 9 9 8 8 8 8 9 9 10 9 9 8 8 8 8 9 10 10 9 9 9 9 10 10 10 12 12 13 16 16 16 16 17 17 16 15 15 15
30 31 27 25 24 26 30 28 25 28 30 29 28 27 25 21 19 19 19 19 18 17 15 15 15 13 12 11 10 10 10 10 12 14 16 17 18 19 18 18 19 20 21 22 23 22 21 21 19 17 16 15 15 14 13 13 11 11 10 9 9 9 9 9 9 10 10 9 9 9 8 8 8 8 8 9 10 10 10 9 8 10 11 12 13 13 14 15 16 15 16 17 17 16 15 15 15
30 32 29 26 25 26 30 28 26 28 30 30 29 28 25 22 22 20 17 18 18 16 15 17 17 15 13 13 12 12 11 10 10 13 16 18 19 20 20 20 20 20 21 22 23 23 22 21 20 18 16 15 15 14 13 13 12 11 10 9 10 10 10 10 10 10 10 10 9 8 8 7 7 7 8 8 10 10 10 9 8 9 12 13 12 12 13 13 14 15 16 16 16 16 15 15 15
34 36 32 29 27 26 29 29 27 27 30 30 29 27 24 25 26 22 18 20 19 17 18 21 18 15 14 13 13 13 13 11 9 11 14 17 19 20 21 21 21 21 22 22 23 22 22 21 20 18 17 16 15 14 13 13 12 11 10 10 10 10 11 11 11 11 10 10 9 9 8 7 7 7 7 7 8 9 10 10 10 11 13 13 11 11 12 12 13 14 14 15 15 15 15 15 15
40 40 36 32 29 27 29 31 29 26 28 30 29 27 26 27 27 21 18 21 19 17 21 22 16 15 16 14 15 15 14 11 9 9 12 15 18 19 21 22 22 22 22 22 22 22 22 22 21 19 18 17 15 15 14 14 13 12 11 10 10 10 11 11 11 11 11 11 10 9 9 8 7 7 7 7 7 8 9 10 11 13 13 12 11 11 12 12 12 13 12 13 13 14 14 13 14
43 42 39 35 32 30 30 32 32 28 26 27 28 30 29 27 26 22 19 20 19 19 22 20 16 17 17 15 16 16 13 12 10 9 11 15 17 18 20 22 22 22 22 23 23 23 23 22 22 21 19 18 17 16 15 15 14 13 12 10 10 10 11 11 11 11 11 11 11 10 9 9 8 8 8 8 8 8 8 9 10 11 11 11 11 11 11 11 12 11 11 11 11 12 12 12 12
44 43 40 37 35 33 32 31 30 28 28 29 28 29 29 27 25 25 23 22 21 22 24 20 18 18 17 17 17 16 14 13 12 11 12 15 18 19 21 22 22 22 23 24 24 25 24 23 22 21 21 20 18 17 16 15 13 12 11 10 10 10 10 11 11 11 11 11 10 10 9 9 8 8 9 9 9 9 9 9 9 9 10 10 10 10 10 10 11 11 9 9 10 10 11 11 10
44 44 42 39 37 36 35 33 29 27 28 30 30 29 28 28 30 29 27 25 24 25 24 21 20 19 19 19 18 17 16 14 14 13 12 15 18 20 21 23 23 23 23 24 24 25 25 24 23 22 22 21 20 18 16 14 12 10 10 10 10 10 10 11 11 11 11 11 10 10 9 9 8 9 9 9 10 10 10 10 10 10 10 9 9 10 10 9 9 9 8 8 8 9 10 9 9
42 43 43 42 40 39 37 32 29 30 33 33 31 31 31 30 32 31 29 28 27 26 25 22 22 22 22 20 18 18 16 14 15 13 12 15 17 20 22 25 25 24 24 25 24 25 25 25 25 24 23 22 21 19 16 14 11 10 10 10 10 11 11 11 12 12 12 11 11 10 9 9 9 9 9 9 10 10 10 11 10 10 10 9 10 10 9 8 8 7 8 8 7 8 8 8 8
40 40 43 44 43 43 41 35 30 29 33 36 35 35 35 33 32 31 31 31 29 28 26 24 24 25 25 21 20 22 19 17 17 13 11 13 16 20 22 24 26 26 26 26 26 26 27 27 27 26 25 23 22 19 17 14 12 12 11 11 12 13 14 14 14 13 13 12 11 10 10 9 9 9 10 10 10 10 10 11 10 10 9 9 9 9 8 8 8 7 7 7 7 7 7 8 7
41 40 41 45 47 47 45 44 40 32 28 31 35 38 38 34 33 32 31 31 30 29 27 26 26 26 25 24 24 25 21 19 17 13 11 11 12 16 20 22 25 26 27 28 28 28 28 28 28 28 26 24 22 20 17 16 14 14 14 14 15 15 16 16 15 14 13 12 11 11 10 10 10 10 10 10 10 10 10 10 10 10 9 9 9 9 8 9 8 8 8 7 7 7 7 7 7
43 42 42 46 49 50 48 48 49 44 37 32 31 38 42 38 35 33 32 32 32 32 30 28 29 29 27 26 26 24 20 19 19 15 11 9 10 14 18 22 25 27 28 28 29 29 28 29 29 29 27 25 22 20 19 17 16 16 17 16 16 16 16 15 15 14 13 12 12 11 11 11 11 11 11 10 10 10 10 10 10 10 10 9 9 8 8 8 8 8 8 7 6 6 6 6 6
45 44 45 46 48 50 51 51 51 49 49 44 35 33 38 40 38 35 34 35 35 34 33 32 31 31 31 28 26 24 21 22 21 17 12 9 11 14 18 22 25 27 28 28 29 30 29 30 30 30 28 26 23 21 20 19 19 19 19 18 18 17 16 15 14 14 14 13 13 12 12 12 11 11 11 11 11 10 10 10 10 10 10 10 9 9 8 8 8 8 7 7 6 5 5 5 5
45 45 48 47 46 48 50 52 53 50 51 51 45 35 30 35 39 40 37 36 38 37 35 35 34 33 33 30 28 26 24 24 23 18 13 12 14 15 17 21 24 25 26 27 29 30 30 30 30 30 29 27 24 22 21 21 21 20 20 19 18 16 15 14 14 14 15 14 14 13 13 12 12 12 12 11 11 10 10 9 9 10 9 9 9 9 8 8 7 7 6 6 6 5 4 4 4
46 46 50 48 45 45 49 51 51 54 55 54 50 41 31 32 37 42 40 34 36 38 36 36 37 35 34 31 29 28 27 26 23 19 14 15 16 16 16 19 21 23 25 26 27 28 29 30 30 30 29 28 25 24 23 22 22 21 20 19 18 16 14 14 14 15 15 15 15 14 13 12 12 12 12 11 11 10 10 9 9 9 9 9 9 8 8 8 7 6 6 5 5 5 4 4 3
48 48 50 49 45 43 47 50 51 56 59 55 52 48 41 37 36 39 41 35 32 35 36 37 36 35 34 32 30 30 29 28 24 21 18 18 18 16 15 17 19 21 23 24 25 26 27 29 29 29 29 28 26 25 24 24 22 21 20 19 17 15 14 15 16 16 16 16 15 14 13 12 12 12 12 11 10 10 9 9 8 8 8 8 8 8 7 7 6 6 5 5 4 4 4 4 4
51 50 51 50 48 46 46 50 53 57 58 55 53 53 51 49 41 35 35 34 32 32 34 35 33 35 36 32 33 32 30 28 25 23 21 20 20 17 15 16 18 19 21 23 24 25 26 27 28 28 28 28 27 26 26 25 24 22 21 20 18 16 15 16 17 17 16 16 15 14 13 13 12 12 11 10 9 9 8 8 8 8 8 8 7 7 7 6 6 6 5 4 3 3 4 4 4
54 52 52 51 49 48 49 50 53 54 55 55 54 54 57 56 48 40 34 30 28 30 37 38 34 35 37 35 33 33 31 28 25 25 24 21 20 18 16 17 17 18 21 23 24 24 25 26 27 28 28 28 28 28 28 26 25 24 22 21 18 17 17 17 17 17 17 16 15 14 14 13 12 12 10 10 9 9 9 8 8 8 7 7 7 6 6 6 5 5 4 3 2 1 2 3 3
56 52 51 52 51 49 47 48 51 52 51 53 54 57 59 56 51 46 41 35 29 25 30 39 39 37 37 36 33 33 34 31 29 29 25 22 21 19 18 18 17 18 19 22 23 24 25 26 27 28 28 28 28 28 29 28 27 26 23 21 19 18 18 19 18 18 17 17 16 15 15 14 13 12 11 11 11 11 11 10 10 9 9 8 8 7 6 6 5 5 5 4 4 3 1 1 2
57 55 52 53 53 50 43 41 44 48 48 49 52 56 58 55 52 49 47 45 39 31 29 36 42 40 39 36 33 35 36 31 29 29 25 23 22 21 20 18 17 18 18 19 21 23 25 26 27 28 28 29 29 30 30 29 28 27 25 22 20 20 20 20 19 19 18 18 18 17 16 15 14 13 13 14 14 13 12 12 11 10 10 9 8 8 7 6 6 6 6 6 6 6 5 4 2
52 54 57 56 52 50 47 42 42 46 46 44 46 51 54 56 55 52 51 49 47 47 44 40 41 43 41 37 33 35 36 33 29 27 25 25 24 22 21 20 18 18 16 16 18 21 24 26 27 28 29 30 30 31 31 30 29 28 26 24 23 22 22 21 20 20 20 20 20 19 18 16 15 15 16 16 15 14 13 12 11 10 9 8 7 6 5 5 4 4 4 5 5 5 6 6 5
44 39 50 56 51 51 52 46 43 48 49 43 41 42 46 52 56 55 53 51 50 51 49 43 43 46 44 39 36 35 35 34 31 29 29 28 26 24 23 21 19 18 17 16 17 19 22 25 27 29 29 30 31 32 32 32 30 29 27 25 24 24 24 24 23 22 22 21 21 21 19 17 17 18 18 18 17 15 14 12 11 9 8 7 6 5 4 3 2 1 1 2 3 3 4 5 6
49 30 31 45 49 53 56 51 48 50 49 44 43 42 38 41 51 56 56 53 49 48 46 44 44 47 45 42 42 40 37 35 33 33 35 32 27 25 24 22 21 19 18 17 16 17 18 22 26 29 30 31 33 34 34 33 32 30 28 27 26 26 26 26 24 23 23 22 21 21 20 19 19 20 20 20 19 17 15 13 12 10 8 7 5 4 3 3 2 1 1 2 2 2 3 4 5
58 42 28 30 37 45 54 57 55 51 42 35 39 45 42 40 45 52 54 53 48 45 43 43 44 45 45 44 44 44 41 38 35 34 36 33 28 26 26 24 23 21 20 19 18 17 17 19 23 27 30 31 33 34 35 35 34 32 30 28 28 28 28 27 26 25 24 23 23 23 21 20 21 21 21 21 20 18 17 15 13 11 9 7 6 5 5 4 4 3 3 3 4 4 4 4 4
52 55 45 34 31 35 44 51 56 57 47 32 29 36 38 39 45 50 51 51 49 45 42 41 43 44 45 46 45 44 44 42 37 34 34 32 29 28 27 27 25 24 23 21 20 20 19 19 19 23 28 31 32 33 34 35 35 34 32 30 29 30 30 29 28 26 25 25 25 24 23 22 22 23 23 23 22 20 18 17 15 13 11 9 8 7 7 7 6 6 5 5 5 5 5 6 5
37 49 54 44 32 31 35 38 45 57 57 43 33 28 20 20 31 43 51 51 47 44 42 40 42 44 47 48 45 45 47 43 39 36 33 33 33 31 29 29 29 26 24 23 21 22 21 20 19 20 23 28 32 32 33 35 36 35 34 32 31 32 32 31 29 28 27 27 26 25 24 23 23 24 25 24 23 21 20 19 17 15 13 11 10 9 9 9 8 8 7 7 7 6 6 7 7
Wind_Direction
124 112 110 139 167 169 166 151 136 134 134 131 140 143 141 145 144 144 146 140 133 123 114 103 96 92 90 94 97 104 94 98 126 137 137 124 129 128 114 110 103 102 102 104 106 104 102 101 102 102 103 104 105 107 108 110 113 117 122 127 130 132 132 132 132 131 130 129 127 126 126 125 126 127 126 119 112 107 103 99 94 91 87 82 78 74 75 79 77 71 67 61 58 66 74 76 82
124 110 103 112 145 160 159 149 142 138 126 121 144 150 146 147 142 143 144 135 129 121 114 106 98 96 94 97 96 97 95 92 116 135 144 137 135 124 111 110 105 99 98 103 104 103 101 100 103 105 105 106 108 108 108 109 112 116 121 127 130 131 130 130 131 131 130 129 128 128 127 126 128 128 122 113 107 106 105 103 101 98 95 90 84 78 74 74 73 71 71 71 68 71 78 83 89
125 115 109 115 132 147 148 145 147 141 123 130 150 150 146 144 140 142 141 133 127 121 117 110 103 103 101 98 94 94 93 89 98 116 145 147 137 124 116 112 108 101 101 105 106 105 103 103 106 108 110 113 114 113 111 110 112 116 121 126 129 130 128 126 126 127 128 129 131 131 130 131 130 128 121 115 111 109 108 108 107 105 101 94 85 79 75 71 70 70 73 81 83 82 87 94 98
125 120 117 126 131 140 144 147 155 153 131 139 150 145 144 146 139 140 139 132 126 119 115 113 111 110 104 99 95 91 88 88 93 103 139 144 134 129 124 116 111 107 108 112 110 108 107 109 111 113 116 116 115 113 111 110 112 118 124 128 129 128 124 122 122 124 128 130 132 132 133 134 131 128 122 117 116 113 113 114 113 108 102 91 77 70 68 68 69 68 70 78 86 87 90 99 100
127 119 124 132 131 138 144 150 154 154 130 131 144 140 140 147 138 137 135 131 127 122 119 115 113 110 107 104 102 96 92 89 92 101 124 129 129 132 128 118 113 110 113 115 112 110 112 115 116 115 114 111 110 110 110 111 116 123 129 131 129 127 125 123 124 125 128 131 132 134 136 135 130 125 120 117 116 118 119 118 116 112 105 90 72 61 61 66 67 68 71 75 84 89 93 99 100
129 121 131 138 138 142 144 153 150 153 144 133 145 142 140 146 139 138 136 134 131 128 125 119 118 114 112 109 106 105 100 95 91 92 104 119 129 135 129 120 116 114 116 117 115 116 118 119 118 115 113 110 110 113 113 114 120 127 132 131 128 127 126 125 125 126 129 132 135 136 136 135 128 123 124 123 122 123 121 116 113 107 98 83 68 57 54 62 66 70 78 82 86 90 93 97 100
146 139 139 146 147 143 141 155 160 156 149 141 150 146 141 143 142 142 137 136 136 133 129 125 127 120 116 111 105 105 104 102 96 96 103 119 130 136 130 124 123 121 122 123 122 123 123 122 119 116 116 115 115 116 116 118 122 127 129 127 126 127 126 126 127 128 129 132 136 137 134 133 130 128 130 132 129 124 120 114 105 90 82 72 61 52 43 50 61 71 79 80 82 86 89 92 99
151 149 143 145 146 144 142 154 168 158 149 146 149 144 144 145 145 144 137 138 140 138 130 128 130 123 119 114 110 108 108 104 102 104 109 122 127 133 132 130 129 127 129 128 127 127 125 122 119 119 119 118 117 117 117 118 120 122 123 123 126 126 128 130 128 129 131 133 136 137 133 132 133 131 133 134 129 123 118 107 94 78 71 66 58 48 37 43 52 63 71 72 80 87 89 91 95
147 151 147 149 151 151 150 157 165 161 156 151 148 146 148 148 146 143 140 140 139 135 130 134 132 124 122 118 115 114 112 107 108 106 102 112 120 127 133 132 130 128 130 129 128 126 124 121 119 119 119 118 117 116 114 114 115 116 117 119 124 126 130 131 128 130 134 138 140 138 134 132 130 129 134 137 134 128 115 98 83 67 59 59 59 56 54 58 59 64 71 76 85 89 88 88 93
151 155 151 154 157 154 152 161 159 156 162 156 149 150 148 144 145 143 141 136 131 128 128 135 130 125 126 122 118 113 115 113 116 111 100 104 117 123 130 131 130 128 129 129 127 125 122 119 118 118 117 115 115 114 111 109 110 111 113 116 121 126 129 129 128 135 138 142 142 136 130 125 125 130 138 141 138 123 104 90 74 57 52 62 70 72 71 71 70 71 78 88 97 98 96 96 107
156 161 159 156 155 153 159 167 162 162 170 161 149 147 146 142 145 145 141 136 132 129 132 138 128 126 127 121 119 114 118 117 119 117 105 107 120 120 127 131 127 126 129 128 125 123 121 118 118 118 118 117 115 113 111 111 111 110 111 115 121 123 125 129 131 135 137 140 139 132 128 124 127 135 139 140 129 112 104 92 78 65 62 71 78 76 74 75 75 76 82 89 96 102 108 112 118
163 168 165 162 158 145 146 164 172 178 173 160 156 150 150 148 148 149 143 139 138 139 144 142 130 126 127 119 120 121 125 124 123 118 109 113 124 120 128 131 127 124 125 124 123 121 119 119 121 121 121 120 117 115 114 114 113 112 112 113 117 117 118 125 127 130 132 134 135 135 135 134 137 137 135 130 116 104 96 86 80 75 73 74 75 75 75 76 76 77 80 85 89 98 109 113 113
166 171 172 174 175 158 138 169 179 186 179 158 157 157 155 154 151 152 149 146 146 150 140 134 130 124 121 117 124 132 132 129 127 120 113 118 123 121 129 130 127 124 121 120 120 120 120 123 125 126 124 121 119 119 117 115 112 112 112 113 114 112 115 117 118 123 128 132 134 136 138 138 136 130 123 114 104 98 91 88 89 87 81 76 75 74 72 73 75 76 79 85 89 95 103 108 109
169 174 183 183 183 176 162 188 185 182 181 162 159 163 164 162 157 156 157 145 141 147 134 132 134 124 118 120 129 137 142 136 133 125 118 119 121 122 129 132 127 123 121 119 119 121 123 126 128 127 125 123 122 121 118 116 116 114 112 112 112 112 114 113 112 116 122 127 130 131 131 129 124 116 111 105 100 97 95 95 95 88 82 78 77 75 73 74 74 75 77 82 86 90 96 101 104
178 185 189 183 184 182 164 178 184 184 175 170 175 175 176 171 165 163 159 138 140 143 129 130 128 127 125 133 135 117 150 148 143 135 125 125 126 126 131 133 128 124 123 119 120 122 124 128 131 130 129 127 126 125 123 120 119 117 114 112 111 112 112 110 108 109 113 117 119 119 117 114 109 105 103 102 100 97 95 94 90 84 81 79 77 76 75 75 74 75 76 78 81 84 86 88 91
188 195 193 185 190 192 192 173 176 191 179 175 183 184 182 176 171 168 163 146 153 149 131 137 133 142 146 150 143 111 143 165 158 148 135 133 131 131 133 133 131 127 123 120 121 122 124 130 134 135 133 129 129 127 124 121 119 117 115 114 111 110 109 107 107 107 107 107 107 107 108 108 105 103 103 102 101 98 93 87 84 83 84 83 81 79 78 78 77 76 74 73 75 77 80 81 83
195 198 196 188 190 194 204 189 171 189 183 179 184 186 183 177 183 177 170 161 153 153 154 156 145 153 158 161 151 125 131 200 179 161 144 140 138 136 136 137 137 129 124 123 123 123 127 131 136 138 133 131 131 128 125 122 119 118 116 114 113 110 108 108 108 108 107 106 110 114 116 116 113 110 106 103 102 99 93 87 86 87 88 89 87 83 82 79 79 79 77 74 72 73 74 76 78
201 200 196 192 197 200 201 167 171 185 179 188 187 180 188 189 196 183 177 176 158 161 160 166 163 164 160 169 164 139 140 203 201 174 156 148 143 143 140 141 141 134 130 127 124 124 129 131 136 138 134 135 133 130 128 125 122 121 119 118 115 112 112 113 112 111 112 113 117 122 124 120 115 112 107 104 102 99 96 91 90 88 86 86 86 84 82 79 79 80 81 81 78 77 80 82 84
207 201 198 202 208 203 200 176 189 202 167 183 188 177 191 198 195 181 178 183 172 169 162 174 172 171 164 180 187 155 142 163 210 191 171 156 146 145 144 146 145 138 135 131 128 128 132 133 137 138 136 136 133 132 130 127 127 127 126 124 121 117 118 118 117 119 121 123 122 124 124 119 115 113 109 104 99 97 96 94 90 85 81 77 77 76 76 77 80 83 86 90 90 85 88 101 103
210 205 203 213 216 194 196 198 208 227 168 172 182 184 194 193 192 196 191 182 179 173 168 174 162 158 171 186 199 174 147 143 197 203 178 160 147 147 148 150 150 143 137 134 132 132 135 136 138 139 139 138 135 135 133 130 130 131 132 129 127 124 124 123 122 125 127 129 129 127 124 117 113 111 106 101 100 99 98 96 89 83 83 79 73 70 72 74 76 85 91 94 96 93 88 99 101
211 212 209 217 223 193 194 209 212 221 207 183 182 191 199 187 206 223 212 193 197 189 172 171 163 159 168 182 199 195 161 145 171 204 183 164 147 144 150 151 150 146 140 137 137 137 139 139 139 138 139 140 138 137 135 134 133 135 138 134 131 128 126 126 126 128 130 129 127 126 121 113 110 109 107 105 105 103 100 98 95 92 91 89 86 84 92 92 87 87 89 89 93 101 101 97 99
215 216 212 219 226 199 196 211 214 217 214 202 190 200 205 193 225 238 229 213 219 203 177 175 174 167 167 176 189 208 184 158 162 198 192 170 153 146 148 151 153 152 144 140 140 140 140 140 139 139 139 139 138 139 138 137 138 142 142 137 133 130 128 127 128 132 133 131 127 125 121 116 116 114 110 109 104 94 93 91 90 93 87 83 83 80 91 99 96 89 86 93 94 102 107 105 109
221 220 218 225 231 211 203 209 216 221 217 210 202 206 209 205 229 239 238 225 217 205 189 183 181 172 171 172 170 194 206 179 169 191 199 178 162 157 153 156 158 157 149 145 144 142 143 143 142 141 141 141 138 140 141 141 142 144 141 136 133 131 130 130 133 136 135 133 130 126 122 121 120 112 104 107 105 95 97 94 82 84 82 80 73 64 72 79 84 87 89 98 92 84 89 92 98
223 223 223 229 233 224 217 212 215 222 223 220 212 211 213 214 225 234 252 240 216 207 203 191 186 178 177 173 163 173 207 204 183 186 200 191 173 166 161 159 158 159 155 151 149 146 146 146 144 142 142 141 140 142 143 144 145 144 140 136 134 133 133 134 138 138 136 134 127 122 116 112 110 104 97 96 97 92 99 99 87 89 95 100 94 78 74 65 67 79 88 103 95 81 78 79 79
224 224 224 226 228 226 224 219 216 220 225 225 219 217 218 220 225 227 240 242 227 216 207 195 198 189 182 182 173 173 184 204 196 184 198 198 180 171 166 161 160 162 161 156 153 151 149 149 146 143 144 143 141 144 146 147 146 143 139 136 135 136 137 138 143 143 139 134 122 111 101 99 98 100 95 90 90 89 90 87 85 93 91 85 90 92 92 86 79 76 84 99 94 89 95 97 91
221 220 220 221 223 223 224 223 220 219 220 221 221 220 219 220 225 233 233 232 227 218 210 205 207 198 187 190 185 182 180 186 191 184 193 197 182 173 171 168 167 164 162 160 158 155 152 152 149 145 145 144 144 146 148 149 147 143 139 138 137 139 139 141 146 145 139 130 115 101 98 103 101 98 96 93 91 89 87 82 83 89 76 65 76 92 96 91 83 79 86 90 85 88 100 109 105
218 218 218 218 221 222 222 225 224 222 218 216 221 222 220 216 216 230 236 229 227 220 218 214 207 198 191 194 191 190 187 184 189 187 190 195 184 177 176 174 171 166 164 163 161 160 157 154 152 149 147 145 146 148 150 150 148 145 142 140 140 140 141 143 146 141 133 124 111 104 106 109 106 102 101 99 95 89 85 79 81 85 81 80 85 89 83 74 69 68 77 82 84 91 101 108 109
219 218 217 217 219 220 221 223 224 224 220 215 220 223 221 216 211 217 225 228 227 219 218 216 205 196 193 195 192 195 192 183 190 195 194 195 188 182 180 177 173 170 168 166 165 164 161 159 156 153 149 148 149 149 151 152 150 147 144 143 143 143 144 145 141 134 128 123 116 114 113 110 107 105 103 103 103 99 90 78 79 81 83 89 90 83 74 69 68 71 76 81 88 95 102 105 106
220 219 217 216 218 218 220 224 224 225 223 218 220 222 221 220 216 211 214 222 219 211 212 212 204 199 199 199 196 196 195 188 191 198 200 200 196 191 185 179 176 174 172 168 167 167 164 163 161 157 154 152 152 152 153 153 151 149 146 145 146 145 145 142 136 131 130 129 127 123 117 111 107 107 107 109 107 101 96 91 88 85 88 93 88 81 77 77 80 82 83 86 91 97 103 106 106
223 224 220 218 218 217 220 223 225 225 225 223 221 223 224 224 223 216 213 216 212 208 206 204 204 206 206 204 202 200 201 200 196 194 198 204 204 201 194 186 180 176 175 171 168 169 167 165 164 162 160 157 156 155 155 154 152 151 149 149 149 146 143 139 135 134 135 133 130 125 118 113 111 111 113 115 112 108 106 102 94 89 94 97 89 83 79 79 84 87 88 91 95 100 107 110 111
226 228 226 222 220 218 220 223 224 223 224 225 224 225 225 223 225 224 217 211 211 208 201 199 204 211 213 209 207 206 207 209 201 193 194 199 203 205 200 193 186 179 177 174 171 170 169 167 167 167 165 162 160 159 159 157 154 152 151 150 148 147 143 139 138 138 139 136 132 129 123 119 116 113 116 117 112 110 108 103 96 91 98 102 92 89 87 85 88 90 92 96 99 104 109 112 111
227 231 231 227 224 221 222 223 221 222 224 226 226 227 228 225 228 228 220 213 212 209 201 199 204 210 216 214 211 210 209 208 203 198 196 194 195 201 202 197 191 186 181 177 174 173 171 169 169 170 169 167 164 163 162 160 157 154 153 151 148 147 145 141 140 140 139 138 135 132 127 123 118 114 117 115 111 111 108 106 100 95 103 107 96 91 92 93 94 96 98 99 101 103 107 109 109
228 232 234 230 226 221 225 226 218 219 224 226 227 230 231 227 232 234 223 216 214 209 203 200 202 207 216 218 216 212 210 208 203 200 199 195 192 195 199 196 194 191 186 181 177 176 173 170 170 171 171 169 167 165 164 163 162 159 157 155 153 150 147 144 142 141 140 140 137 133 128 122 118 114 115 113 113 118 113 104 103 107 115 113 106 103 99 97 97 98 101 102 102 103 105 108 108
229 234 234 231 226 220 225 227 218 217 221 226 227 230 232 227 236 239 222 216 217 210 206 205 201 202 212 218 217 212 209 211 208 204 201 196 193 195 195 195 196 194 190 186 181 179 176 172 171 172 171 169 169 168 166 166 165 164 161 160 159 154 151 148 145 145 143 140 136 132 126 119 116 112 113 113 115 120 115 106 108 114 119 118 115 113 102 97 98 99 102 103 105 106 108 108 106
233 236 233 231 227 220 224 227 222 218 219 225 228 228 229 228 234 236 226 223 219 211 209 207 202 202 210 215 218 214 208 211 216 212 207 201 198 197 196 195 196 193 192 192 186 181 179 175 173 172 172 171 171 169 167 169 169 169 169 167 165 160 156 153 150 148 143 138 134 130 125 118 117 113 113 115 117 119 117 117 119 114 115 117 117 113 107 102 102 102 101 102 104 106 107 107 105
232 234 233 230 227 223 223 227 226 221 219 224 229 229 228 230 232 231 230 227 217 211 209 203 202 207 213 217 221 216 206 207 216 219 214 208 204 201 197 197 196 193 192 194 191 185 181 179 176 174 174 173 173 172 171 173 174 174 175 174 170 164 159 157 153 149 143 140 136 132 129 124 121 118 116 117 118 118 119 121 125 123 121 122 122 123 124 116 106 102 100 100 101 102 103 105 106
227 230 230 228 227 224 223 226 228 223 220 224 229 232 231 232 234 232 231 226 216 212 208 202 203 212 215 218 224 220 210 203 209 219 217 211 208 204 201 198 197 196 193 192 192 190 185 182 180 177 176 175 175 177 177 178 179 179 180 177 171 165 162 158 154 150 146 142 140 138 136 133 130 127 124 123 121 117 118 119 123 127 127 128 132 132 132 126 113 105 102 101 99 99 100 101 104
224 227 229 226 224 223 223 230 233 226 221 223 225 229 231 233 234 233 230 224 216 214 214 208 204 214 217 219 224 222 213 205 205 214 214 210 207 205 204 201 199 197 195 192 191 191 189 185 182 179 178 178 180 183 185 186 185 183 180 173 167 164 162 159 155 152 149 146 144 143 143 140 139 136 132 131 129 125 124 121 121 124 122 123 129 128 127 129 122 114 109 106 102 100 99 98 102
222 225 228 228 226 223 222 227 232 228 223 224 226 228 231 234 236 235 230 225 218 217 221 215 208 215 220 221 225 222 214 207 204 209 210 207 204 202 202 202 200 198 197 195 192 190 190 188 184 182 181 182 185 188 191 193 191 187 179 171 166 163 161 161 159 157 154 152 150 148 148 146 145 143 139 138 137 134 131 125 122 121 117 117 122 122 120 125 124 121 117 115 110 105 102 100 102
222 222 224 227 227 226 224 224 229 230 223 220 223 226 228 232 235 232 229 229 226 220 218 217 216 221 225 226 227 222 215 210 205 207 212 208 204 203 202 201 200 199 197 197 196 192 190 190 187 185 185 186 189 192 195 197 194 188 180 172 167 164 165 167 166 163 160 159 155 153 152 151 151 149 146 144 143 140 135 131 128 124 121 121 121 118 115 117 122 125 126 123 118 112 110 109 109
224 222 220 222 225 226 225 225 230 237 234 225 223 227 226 228 233 232 228 228 229 224 217 217 219 221 224 228 232 229 223 216 210 207 210 209 206 204 203 201 199 198 197 196 196 195 191 191 189 188 189 189 192 195 195 195 191 187 183 176 170 168 172 174 173 171 168 166 161 158 158 157 157 156 154 151 148 147 142 137 134 130 128 127 123 119 116 120 125 128 131 130 125 122 122 120 120
225 223 221 220 221 223 222 221 222 234 239 229 225 231 230 229 232 233 230 229 230 228 220 217 221 223 223 224 227 230 227 220 214 207 207 211 211 209 206 203 200 198 198 195 194 195 194 193 191 191 192 192 194 195 194 192 189 187 186 182 180 178 179 180 179 177 173 170 167 164 164 165 165 163 161 159 156 155 151 144 142 140 136 133 129 126 124 129 133 132 135 137 136 136 134 132 131
225 223 222 221 221 220 220 220 220 225 233 226 224 231 233 233 234 232 233 233 233 231 226 223 225 228 227 224 223 224 225 223 215 205 209 218 219 217 212 207 204 201 200 197 195 195 196 195 193 194 195 195 196 195 192 190 188 188 190 189 187 185 185 183 180 178 175 173 173 173 173 171 172 170 168 166 165 164 161 155 154 152 148 145 141 138 137 138 138 138 139 141 144 145 144 140 140
224 222 221 221 222 221 219 220 222 225 230 228 225 228 231 234 234 232 232 232 232 233 231 228 226 228 230 227 224 223 225 227 217 205 209 223 226 223 217 211 208 206 203 199 196 196 197 196 196 197 196 196 196 194 190 189 189 192 193 193 192 191 188 184 179 177 175 176 177 179 181 179 179 179 177 174 172 171 171 167 165 165 164 161 157 153 150 146 144 144 143 146 151 153 153 150 150
222 223 222 221 221 222 221 221 223 225 229 228 225 228 232 235 234 231 230 228 230 232 233 229 226 228 231 228 225 222 224 226 216 205 207 224 236 230 222 216 212 211 208 203 199 197 197 198 199 199 198 197 195 192 191 190 191 195 196 195 195 194 190 183 179 177 177 179 182 183 186 186 187 187 186 183 180 178 178 176 174 175 176 175 172 167 164 159 155 153 149 151 157 161 163 162 160
221 223 225 222 220 223 224 224 224 225 228 227 225 224 231 237 232 225 226 226 227 229 232 234 231 229 229 228 226 221 222 226 216 204 207 225 238 238 230 224 218 214 211 208 204 200 198 199 200 201 200 199 195 192 192 194 196 197 198 198 198 196 190 184 181 181 182 184 186 187 189 191 192 193 193 190 188 185 185 184 182 182 184 186 183 178 177 176 171 168 163 160 161 163 170 174 173
219 222 227 224 220 222 225 226 226 226 228 226 223 219 221 235 230 222 223 226 227 229 231 235 234 231 227 226 227 224 221 225 216 205 211 225 234 240 237 232 224 219 215 213 211 206 202 200 201 203 202 200 197 193 194 197 200 201 201 201 200 195 189 186 185 186 187 188 190 191 193 195 195 195 194 191 191 189 189 190 189 188 191 194 194 189 187 188 185 183 180 176 173 174 178 185 186
218 220 226 225 220 221 225 226 226 228 229 227 225 220 219 227 225 218 222 226 227 229 229 232 233 232 230 226 226 226 223 221 213 206 213 226 233 237 239 235 227 223 220 217 215 212 208 205 204 204 203 201 198 195 195 198 202 204 204 204 201 195 189 187 189 191 191 192 193 194 195 197 197 195 193 190 189 188 188 191 191 191 194 196 198 197 194 193 193 194 193 190 190 194 199 200 201
218 218 223 224 220 220 223 225 227 228 230 229 228 226 225 227 223 214 219 226 226 224 223 228 232 232 233 229 223 226 227 221 216 213 215 224 232 234 234 233 227 222 221 219 218 216 214 211 208 206 204 203 200 197 198 199 202 204 206 206 202 194 189 190 192 193 195 195 195 196 198 199 199 196 192 188 184 182 181 183 186 187 190 193 195 196 195 192 194 195 194 193 197 212 225 225 223
218 218 221 223 221 220 223 225 227 229 231 231 230 230 230 231 226 215 214 222 225 227 226 228 232 233 232 228 222 224 228 224 221 220 218 222 230 232 231 231 227 221 219 219 218 217 215 214 212 209 206 204 202 200 201 201 203 205 206 206 202 195 193 193 194 195 196 197 197 198 201 201 200 195 188 181 176 170 167 166 167 168 168 171 175 178 180 179 180 181 176 170 165 194 242 247 245
219 218 221 224 220 220 224 227 228 229 231 234 233 232 232 233 230 222 220 223 223 227 229 224 226 232 232 228 224 224 226 223 219 219 219 225 231 231 228 228 227 223 222 221 220 218 216 215 214 213 209 206 204 204 205 204 204 205 206 205 200 196 197 197 197 196 197 197 198 200 202 202 199 191 181 175 169 162 156 151 146 143 139 138 139 139 140 139 138 133 122 109 100 91 69 320 274
222 218 220 225 221 218 222 227 230 230 232 236 236 234 233 234 233 228 224 225 224 227 226 216 217 225 229 226 222 221 223 223 219 218 221 228 231 231 230 227 226 226 226 225 224 222 220 217 216 215 212 208 205 206 208 208 208 208 206 203 200 197 200 201 200 199 198 198 199 200 202 202 196 186 179 175 168 161 155 150 144 139 134 131 127 124 122 119 113 106 99 92 85 80 71 56 37
223 222 221 224 223 219 219 223 226 228 230 234 238 238 235 234 234 232 228 224 223 227 230 223 218 222 225 223 220 220 222 223 223 223 226 230 231 231 230 227 224 226 227 226 225 224 223 220 218 216 214 211 208 207 210 211 211 211 208 203 200 199 201 204 203 202 202 201 200 200 201 200 191 184 182 178 172 168 163 160 156 151 147 144 139 135 131 123 112 98 87 82 78 75 71 63 54
217 222 225 226 224 219 219 221 223 226 227 229 233 236 237 236 234 233 231 226 222 224 229 227 224 226 227 227 227 225 224 223 223 223 226 228 228 229 230 228 224 224 224 224 224 224 224 224 222 220 217 214 212 210 211 213 214 213 210 205 202 201 203 205 205 204 204 203 203 203 202 198 189 187 186 181 178 176 174 173 172 168 167 166 165 164 163 158 143 113 63 51 51 56 59 56 51
211 207 221 229 226 221 219 218 219 224 228 228 229 230 233 238 238 234 231 229 224 224 227 227 227 230 230 229 230 229 228 226 222 221 223 223 224 227 230 228 226 225 226 226 227 228 227 227 226 224 221 217 215 213 212 213 215 214 212 207 204 204 205 207 207 206 205 205 205 206 203 197 192 190 188 185 185 184 183 186 186 186 187 188 192 198 205 214 221 236 287 318 333 351 13 25 28
211 201 200 220 225 223 222 222 220 221 225 229 233 234 232 234 238 237 233 231 227 223 224 225 226 230 231 229 230 230 231 231 227 224 223 221 221 225 228 228 227 227 228 228 229 231 231 231 230 227 225 222 220 218 216 215 216 215 213 210 208 207 209 210 209 208 207 207 207 207 205 199 195 193 191 191 192 191 191 195 197 200 203 206 212 224 236 245 250 256 270 284 295 310 324 340 354
212 207 202 206 212 215 221 225 224 222 222 222 227 235 238 240 242 242 239 234 229 223 219 220 221 226 230 230 229 230 232 233 232 230 229 227 224 223 225 227 227 227 228 230 231 233 235 235 236 233 230 227 224 222 220 219 219 218 216 213 211 211 212 212 211 209 208 209 209 208 206 200 197 195 195 196 197 196 199 202 205 210 215 218 223 231 240 248 253 255 260 269 279 291 300 310 322
213 212 209 210 212 211 215 222 223 222 223 221 220 224 235 246 244 244 242 237 231 224 218 217 218 220 226 229 227 229 232 232 232 232 231 229 226 223 223 226 229 230 231 233 235 237 240 241 242 241 236 231 228 226 224 222 222 222 220 217 214 214 216 215 213 211 209 211 211 210 208 203 199 198 200 201 202 202 205 208 211 216 221 225 230 235 239 245 249 250 252 257 267 278 287 293 301